Home   Weather   Siem Reap   Past weeks
Flag for Cambodia

Past Weather in Siem Reap, Cambodia — Yesterday and Last 2 Weeks

Now
88 °F

Scattered clouds.


Feels Like: 98 °F
Forecast: 92 / 76 °F
Wind: 7 mph from South

Location: Siemreap

Current Time: Oct 22, 2019 at 4:24:29 pm

Latest Report: Oct 22, 2019 at 3:30 pm


Visibility: N/A

Pressure: 29.68 "Hg

Humidity: 66%

Dew Point: 75 °F

Location of Siem ReapLocation

Past Weather in Siem Reap — Graph

°F

Siem Reap Temperature Yesterday

Maximum temperature yesterday: 90 °F (at 12:30 pm)
Minimum temperature yesterday: 79 °F (at 12:00 am)
Average temperature yesterday: 83 °F

High & Low Weather Summary for the Past Weeks

 TemperatureHumidityPressure
High91 °F (Oct 11, 2:30 pm)100% (Oct 8, 12:00 am)29.95 "Hg (Oct 8, 12:00 am)
Low75 °F (Oct 12, 7:00 am)49% (Oct 18, 2:30 pm)29.68 "Hg (Oct 22, 2:30 pm)
Average82 °F83%29.82 "Hg
* Reported Oct 7 3:00 pm — Oct 22 3:00 pm, Siem Reap. Weather by CustomWeather, © 2019

Note: Actual official high and low records may vary slightly from our data, if they occured in-between our weather recording intervals... More about our weather records

Advertising

Siem Reap Weather History for the Previous 24 Hours

Scroll right to see more
 ConditionsComfort  
Time TempWeatherWind HumidityBarometerVisibility
3:00 pm
Tue, Oct 22
88 °FScattered clouds.7 mph66%29.68 "HgN/A
2:30 pm88 °FScattered clouds.7 mph66%29.68 "HgN/A
2:00 pm90 °FScattered clouds.7 mph63%29.71 "HgN/A
1:30 pm88 °FScattered clouds.9 mph66%29.71 "HgN/A
1:00 pm90 °FScattered clouds.7 mph67%29.71 "HgN/A
12:30 pm90 °FScattered clouds.6 mph63%29.74 "HgN/A
12:00 pm88 °FScattered clouds.7 mph66%29.74 "HgN/A
11:30 am88 °FScattered clouds.7 mph70%29.77 "HgN/A
11:00 am88 °FScattered clouds.5 mph66%29.77 "HgN/A
10:30 am90 °FScattered clouds.3 mph63%29.80 "HgN/A
10:00 am90 °FPassing clouds.1 mph63%29.80 "HgN/A
9:30 am86 °FPassing clouds.2 mph70%29.80 "HgN/A
9:00 am86 °FPassing clouds.5 mph75%29.80 "HgN/A
8:30 am84 °FPassing clouds.5 mph84%29.80 "HgN/A
8:00 am82 °FPassing clouds.3 mph84%29.80 "HgN/A
7:30 am82 °FPassing clouds.3 mph84%29.77 "HgN/A
7:00 am81 °FPassing clouds.2 mph94%29.77 "HgN/A
6:30 am79 °FScattered clouds.2 mph94%29.77 "HgN/A
6:00 am79 °FScattered clouds.3 mph94%29.77 "Hg6 mi
5:30 am79 °FPassing clouds.2 mph94%29.74 "Hg6 mi
5:00 am79 °FPassing clouds.1 mph100%29.74 "Hg6 mi
4:30 am79 °FPassing clouds.2 mph94%29.74 "Hg6 mi
4:00 am79 °FPassing clouds.2 mph94%29.74 "Hg6 mi
3:30 am79 °FPassing clouds.1 mph100%29.74 "Hg6 mi
3:00 am79 °FPassing clouds.1 mph100%29.74 "Hg6 mi
2:30 am79 °FPassing clouds.No wind100%29.74 "Hg6 mi
2:00 am81 °FPassing clouds.No wind89%29.77 "Hg6 mi
1:30 am79 °FPassing clouds.No wind100%29.77 "Hg6 mi
1:00 am79 °FPassing clouds.2 mph100%29.77 "Hg6 mi
12:30 am79 °FPassing clouds.3 mph100%29.77 "Hg6 mi
12:00 am81 °FPassing clouds.2 mph100%29.80 "Hg6 mi
11:00 pm
Mon, Oct 21
82 °FPassing clouds.1 mph94%29.80 "Hg6 mi
10:30 pm82 °FPassing clouds.1 mph94%29.80 "Hg6 mi
10:00 pm82 °FPassing clouds.1 mph94%29.80 "Hg6 mi
9:30 pm82 °FPassing clouds.3 mph94%29.80 "Hg6 mi
9:00 pm82 °FPassing clouds.No wind89%29.80 "Hg6 mi
8:30 pm84 °FPassing clouds.1 mph84%29.80 "Hg6 mi
8:00 pm82 °FPassing clouds.2 mph84%29.77 "Hg6 mi
7:30 pm84 °FPassing clouds.2 mph79%29.77 "Hg6 mi
7:00 pm84 °FPassing clouds.2 mph79%29.77 "Hg6 mi
6:30 pm84 °FPassing clouds.3 mph79%29.74 "Hg6 mi
6:00 pm84 °FPassing clouds.3 mph79%29.74 "Hg6 mi
5:30 pm86 °FScattered clouds.3 mph70%29.74 "HgN/A
5:00 pm88 °FScattered clouds.5 mph66%29.74 "HgN/A
4:30 pm88 °FScattered clouds.5 mph66%29.71 "HgN/A
4:00 pm88 °FScattered clouds.5 mph66%29.74 "HgN/A
Weather by CustomWeather, © 2019

See weather overview